[[{"header":{"parameterUnit":"m.s-1","parameterCategory":1,"la1":30.2991,"la2":30.254,"lo1":-89.0895,"lo2":-89.0444,"dy":0.0017,"dx":0.0017,"nx":28,"ny":28,"refTime":"2023-10-03T21:00:00:Z","depth":0,"parameterNumber":2,"parameterNumberName":"U-component_of_WINDS"},"data":[0,0,0,0,0,0,0,0,0,0,0,0,0,0,0,0,0,0,0,0,0,0,0,0,0,0,0,0,0,0,0,0,0,0,0,0,0,0,0,0,0,0,0,0,0,0,0,0,0,0,0,0,0,0,0,0,0,0,-4.9062,-4.9063,0,-4.9174,-4.9175,-4.9177,-4.9094,-4.909,-4.9086,-4.9083,-4.9193,-4.9199,-4.9205,0,0,0,0,0,0,0,0,0,0,0,0,0,-4.8773,-4.8779,-4.9062,-4.9063,-4.9065,-4.9174,-4.9175,-4.9177,-4.9094,-4.909,-4.9086,-4.9081,-4.9191,-4.9198,-4.9206,0,0,0,0,0,0,0,0,0,0,0,0,0,-4.8893,-4.8781,-4.9062,-4.9037,-4.9036,-4.9174,-4.9176,-4.9177,-4.9095,-4.909,-4.9084,-4.9079,-4.9189,-4.9198,-4.9207,-4.9374,0,0,-4.9236,-4.924,0,0,0,0,0,0,0,0,-4.8886,-4.8904,-4.9039,-4.9039,-4.9038,-4.9114,-4.9114,-4.9243,-4.9097,-4.9073,-4.9083,-4.9077,-4.9171,-4.9182,-4.9214,-4.9379,-4.9384,-4.9237,-4.9243,-4.9247,-4.9249,0,0,0,0,0,0,0,-4.8878,-4.8898,-4.9106,-4.9041,-4.904,-4.9019,-4.903,-4.9138,-4.9151,-4.9074,-4.9068,-4.9083,-4.917,-4.9205,-4.9216,-4.9386,-4.9237,-4.9245,-4.9251,-4.9255,-4.9692,-4.9698,0,0,0,0,0,0,-4.8873,-4.8892,-4.9103,-4.911,-4.8947,-4.9029,-4.9041,-4.9095,-4.9149,-4.9152,-4.9088,-4.9079,-4.9192,-4.9205,-4.922,-4.9417,-4.9247,-4.9255,-4.9261,-4.9686,-4.9693,-4.97,0,0,0,0,0,0,-4.8867,-4.8892,-4.9098,-4.8999,-4.9024,-4.9039,-4.9101,-4.91,-4.9136,-4.916,-4.9161,-4.9122,-4.9188,-4.9207,-4.9336,-4.942,-4.926,-4.9268,-4.9679,-4.9688,-4.9697,-4.9814,0,0,0,0,0,0,-4.8859,-4.8891,-4.8955,-4.9002,-4.903,-4.9214,-4.9106,-4.9106,-4.9153,-4.9143,-4.9192,-4.9195,-4.9185,-4.9323,-4.9346,-4.943,-4.9276,-4.9672,-4.9683,-4.9694,-4.9803,-4.9826,-4.9846,0,0,0,0,0,-4.8849,-4.8983,-4.8959,-4.8984,-4.911,-4.9219,-4.9235,-4.9222,-4.916,-4.9224,-4.924,-4.9194,-4.9408,-4.9337,-4.9362,-4.945,-4.9666,-4.968,-4.9693,-4.9793,-4.9821,-4.9845,0,0,0,0,0,0,-4.8943,-4.8988,-4.8962,-4.9115,-4.9164,-4.9205,-4.9285,-4.9253,-4.9319,-4.9306,-4.9286,-4.9298,-4.9434,-4.9456,-4.9376,-4.9614,-4.9527,-4.9546,-4.9594,-4.9622,-4.9643,-4.9633,-4.9284,0,0,0,0,0,-4.8983,-4.9068,-4.9103,-4.9234,-4.9261,-4.9269,-4.9316,-4.9302,-4.9351,-4.9371,-4.9396,-4.9444,-4.9522,-4.9574,-4.9647,-4.9807,-4.9815,-4.988,-4.9902,-4.9919,-4.9935,-5.0019,-5.0048,-4.9744,-4.9744,-4.9743,0,0,-4.9063,-4.9098,-4.9153,-4.9254,-4.929,-4.9378,-4.9287,-4.9383,-4.9448,-4.9385,-4.9509,-4.953,-4.9582,-4.9728,-4.9793,-4.9749,-5.0021,-4.9937,-4.995,-4.9956,-5.0036,-5.0065,-5.009,-4.9753,-4.9751,-4.975,0,0,-4.9254,-4.9291,-4.9404,-4.9443,-4.95,-4.9505,-4.9532,-4.9579,-4.959,-4.9715,-4.967,-4.9746,-4.9882,-4.992,-4.9958,-5.0167,-5.0126,-5.0192,-5.0302,-5.0385,-5.0409,-5.043,-5.0501,-5.0528,-5.0208,-5.0208,-5.0208,0,-4.9346,-4.9477,-4.9465,-4.9566,-4.9611,-4.9562,-4.9675,-4.9713,-4.979,-4.9822,-4.9774,-4.9943,-4.9975,-5.0128,-5.0179,-5.0212,-5.0241,-5.0183,-5.0407,-5.0428,-5.0447,-5.0515,-5.0542,-5.0216,-5.0215,-5.0214,-5.0213,0,-4.9586,-4.9679,-4.9763,-4.9841,-4.9896,-5.0003,-5.0005,-5.0063,-5.0046,-5.0056,-5.0183,-5.0221,-5.03,-5.0336,-5.032,-5.0487,-5.0458,-5.041,-5.032,-5.0483,-5.0547,-5.0573,-5.0226,-5.0223,-5.0221,-5.0219,0,0,-4.9835,-4.9907,-4.9938,-4.9972,-5.0033,-5.0103,-5.0208,-5.0288,-5.0336,-5.0392,-5.0477,-5.0595,-5.055,-5.0593,-5.0581,-5.0654,-5.0814,-5.0596,-5.0596,-5.0632,-5.0998,-5.1032,-5.1062,-5.079,-5.0795,-5.0799,-5.0993,0,-5.0026,-5.0209,-5.0202,-5.0372,-5.0456,-5.0412,-5.0503,-5.0549,-5.0562,-5.0635,-5.0649,-5.0731,-5.0667,-5.0692,-5.0764,-5.078,-5.0887,-5.0766,-5.0866,-5.087,-5.085,-5.1096,-5.1132,-5.1312,-5.1018,-5.1022,-5.1025,0,-5.0272,-5.0338,-5.0517,-5.0565,-5.06,-5.0682,-5.0754,-5.0825,-5.0877,-5.0882,-5.0931,-5.0908,-5.1012,-5.0925,-5.1068,-5.0986,-5.1027,-5.1042,-5.1048,-5.1053,-5.0954,-5.1104,-5.137,-5.1395,-5.1065,-5.1061,-5.1059,0,-5.0432,-5.0566,-5.0689,-5.0721,-5.0781,-5.0839,-5.0867,-5.0914,-5.0963,-5.1026,-5.1057,-5.1132,-5.1172,-5.123,-5.1227,-5.1165,-5.1371,-5.1284,-5.1375,-5.1376,-5.1417,-5.1413,-5.1689,-5.1451,-5.1451,-5.145,-5.145,0,-5.0643,-5.0753,-5.0762,-5.0837,-5.0959,-5.0951,-5.1072,-5.1093,-5.1136,-5.1214,-5.1182,-5.1256,-5.125,-5.1324,-5.1323,-5.144,-5.1459,-5.1464,-5.1461,-5.1464,-5.1463,-5.1487,-5.1473,-5.1457,-5.1456,-5.1454,-5.1453,0,-5.0839,-5.085,-5.0981,-5.1029,-5.1044,-5.1131,-5.1171,-5.1242,-5.1255,-5.1354,-5.1377,-5.1395,-5.1481,-5.1486,-5.1585,-5.1584,-5.1725,-5.1711,-5.1707,-5.1703,-5.1793,-5.1783,-5.209,-5.2129,-5.187,-5.1872,-5.1874,0,-5.0971,-5.1054,-5.1112,-5.1163,-5.1195,-5.1277,-5.1327,-5.1323,-5.1376,-5.1443,-5.1506,-5.1589,-5.1655,-5.1795,-5.1816,-5.1891,-5.1876,-5.1979,-5.1887,-5.1887,-5.1873,-5.1867,-5.1874,-5.1995,-5.1998,-5.2,-5.2002,0,-5.1202,-5.1204,-5.1278,-5.1355,-5.1415,-5.1475,-5.153,-5.1574,-5.1576,-5.1638,-5.1726,-5.1778,-5.188,-5.1962,-5.2037,-5.2064,-5.2033,-5.2032,-5.2056,-5.2058,-5.2051,-5.2052,-5.1752,-5.2024,-5.2021,-5.202,-5.2019,-5.2018,-5.1368,-5.144,-5.1492,-5.1575,-5.1617,-5.167,-5.1739,-5.1761,-5.1835,-5.1918,-5.1913,-5.201,-5.206,-5.2157,-5.2191,-5.2266,-5.2231,-5.2267,-5.2275,-5.2283,-5.2291,-5.2043,-5.228,-5.228,-5.2279,-5.2279,-5.2278,0,-5.1594,-5.1627,-5.1704,-5.1783,-5.1849,-5.1818,-5.1878,-5.1934,-5.2021,-5.2072,-5.2138,-5.224,-5.232,-5.2349,-5.2427,-5.2482,-5.247,-5.2502,-5.2496,-5.2502,-5.232,-5.2289,-5.2511,-5.2511,-5.2511,-5.2511,-5.2511,-5.251,-5.172,-5.1839,-5.1848,-5.1988,-5.2019,-5.2115,-5.2152,-5.22,-5.224,-5.2356,-5.2423,-5.2443,-5.2484,-5.2566,-5.2638,-5.2644,-5.2673,-5.271,-5.271,-5.2539,-5.2515,-5.2492,-5.2463,-5.2718,-5.2718,-5.2886,-5.2887,-5.2888]},{"header":{"parameterUnit":"m.s-1","parameterCategory":1,"la1":30.2991,"la2":30.254,"lo1":-89.0895,"lo2":-89.0444,"dy":0.0017,"dx":0.0017,"nx":28,"ny":28,"refTime":"2023-10-03T21:00:00:Z","depth":0,"parameterNumber":3,"parameterNumberName":"V-component_of_WINDS"},"data":[0,0,0,0,0,0,0,0,0,0,0,0,0,0,0,0,0,0,0,0,0,0,0,0,0,0,0,0,0,0,0,0,0,0,0,0,0,0,0,0,0,0,0,0,0,0,0,0,0,0,0,0,0,0,0,0,0,0,2.5532,2.553,0,2.5374,2.5372,2.5371,2.5193,2.519,2.5187,2.5185,2.5019,2.5017,2.5015,0,0,0,0,0,0,0,0,0,0,0,0,0,2.5677,2.5676,2.5532,2.553,2.5528,2.5374,2.5372,2.537,2.5193,2.519,2.5187,2.5184,2.502,2.5017,2.5015,0,0,0,0,0,0,0,0,0,0,0,0,0,2.5577,2.5675,2.5533,2.5421,2.541,2.5375,2.5372,2.5369,2.5194,2.519,2.5186,2.5182,2.5021,2.5018,2.5015,2.5075,0,0,2.5006,2.5004,0,0,0,0,0,0,0,0,2.5582,2.5571,2.544,2.5429,2.5416,2.5299,2.5362,2.5271,2.5195,2.5276,2.5185,2.518,2.5115,2.5104,2.5083,2.5067,2.506,2.5005,2.5004,2.5002,2.5001,0,0,0,0,0,0,0,2.559,2.5577,2.5469,2.5438,2.5424,2.5379,2.536,2.5344,2.5219,2.5268,2.5255,2.5239,2.5108,2.5086,2.5078,2.5058,2.5005,2.5003,2.5001,2.5,2.5083,2.5087,0,0,0,0,0,0,2.5614,2.5584,2.5474,2.5465,2.5491,2.5379,2.5358,2.5341,2.5219,2.5197,2.5243,2.5231,2.5093,2.5081,2.5071,2.5133,2.5002,2.5,2.4998,2.5079,2.5084,2.5088,0,0,0,0,0,0,2.5618,2.5606,2.5481,2.5521,2.5501,2.5381,2.5362,2.534,2.5318,2.5199,2.5176,2.5244,2.509,2.5075,2.5076,2.5125,2.4998,2.4996,2.5074,2.5081,2.5086,2.5258,0,0,0,0,0,0,2.5623,2.5608,2.563,2.5523,2.55,2.5489,2.5365,2.5339,2.5314,2.5297,2.5194,2.5173,2.5086,2.5081,2.5073,2.5118,2.4993,2.5069,2.5077,2.5084,2.5247,2.5269,2.5288,0,0,0,0,0,2.5629,2.5684,2.5633,2.562,2.5525,2.5492,2.5479,2.5378,2.5318,2.5339,2.5263,2.5177,2.5122,2.5083,2.5072,2.5117,2.5066,2.5075,2.5084,2.5238,2.5265,2.5287,0,0,0,0,0,0,2.5799,2.5668,2.5609,2.5632,2.5575,2.5462,2.5485,2.541,2.5367,2.5354,2.5229,2.5207,2.5222,2.5169,2.5128,2.5169,2.5081,2.5088,2.5203,2.5227,2.5247,2.5258,2.4991,0,0,0,0,0,2.584,2.5825,2.5711,2.5742,2.5717,2.5607,2.5588,2.5516,2.5451,2.5426,2.5349,2.5289,2.5258,2.524,2.5204,2.524,2.5214,2.5266,2.5287,2.5304,2.5311,2.5325,2.5346,2.5118,2.5118,2.5117,0,0,2.5923,2.5849,2.5847,2.5774,2.5721,2.5708,2.5587,2.5578,2.5566,2.5423,2.5419,2.5362,2.5286,2.5304,2.5308,2.5261,2.5369,2.5315,2.533,2.5327,2.5337,2.5358,2.5378,2.5124,2.5123,2.5122,0,0,2.6066,2.601,2.603,2.598,2.5903,2.5829,2.5835,2.5734,2.5691,2.5685,2.5578,2.5562,2.5512,2.5462,2.543,2.5558,2.5477,2.5551,2.5655,2.5671,2.5689,2.5704,2.5749,2.5766,2.5558,2.5559,2.5559,0,2.6178,2.6155,2.6049,2.6047,2.6018,2.5891,2.5909,2.5865,2.578,2.5763,2.5712,2.5646,2.5586,2.559,2.5622,2.5601,2.5602,2.556,2.5695,2.5709,2.5722,2.5763,2.578,2.5568,2.5567,2.5566,2.5565,0,2.6296,2.6282,2.6307,2.623,2.6203,2.6212,2.6107,2.6093,2.6024,2.5956,2.5952,2.5876,2.5824,2.582,2.5751,2.5815,2.5788,2.5719,2.5627,2.5755,2.5791,2.5806,2.5582,2.5578,2.5575,2.5573,0,0,2.654,2.6406,2.6417,2.638,2.6287,2.6273,2.6276,2.6226,2.6216,2.6163,2.6161,2.6122,2.6057,2.6022,2.5947,2.5961,2.6067,2.5888,2.5885,2.5923,2.6131,2.6183,2.6203,2.6013,2.6016,2.6018,2.6137,0,2.6665,2.6663,2.6569,2.6593,2.6578,2.6458,2.646,2.6403,2.6341,2.6318,2.6248,2.6223,2.614,2.6117,2.6126,2.6052,2.6106,2.6042,2.6009,2.6009,2.603,2.6222,2.6277,2.6393,2.6151,2.6153,2.6155,0,2.681,2.6767,2.6791,2.6697,2.6687,2.6691,2.6638,2.6619,2.6552,2.6505,2.6467,2.6383,2.6378,2.6295,2.6285,2.6244,2.6225,2.6187,2.6189,2.618,2.6088,2.6217,2.6428,2.6445,2.6177,2.6175,2.6173,0,2.6985,2.6932,2.6939,2.6912,2.6803,2.6809,2.6764,2.6693,2.6669,2.6623,2.6607,2.6561,2.6535,2.6501,2.6406,2.6354,2.6408,2.6316,2.6368,2.6371,2.6383,2.6383,2.6592,2.6375,2.6375,2.6374,2.6374,0,2.7133,2.7152,2.7016,2.702,2.7037,2.6929,2.6949,2.6892,2.683,2.6821,2.6715,2.6708,2.6584,2.6563,2.649,2.6493,2.6483,2.6444,2.6424,2.6452,2.6457,2.6436,2.6425,2.6379,2.6378,2.6377,2.6376,0,2.7329,2.7239,2.7238,2.7137,2.7112,2.7129,2.7042,2.7041,2.6973,2.6963,2.6954,2.6847,2.6817,2.672,2.6666,2.6616,2.6641,2.6604,2.6665,2.6651,2.6708,2.6704,2.6909,2.693,2.6703,2.6705,2.6707,0,2.7428,2.744,2.7341,2.7328,2.7288,2.7268,2.7244,2.7139,2.7118,2.7044,2.7052,2.7014,2.6978,2.6935,2.6852,2.681,2.6769,2.6845,2.6762,2.6791,2.6769,2.6769,2.6769,2.6862,2.6865,2.6867,2.6869,0,2.7615,2.757,2.7541,2.7497,2.7472,2.7431,2.7385,2.738,2.7262,2.7244,2.7213,2.7186,2.7131,2.7094,2.7039,2.6991,2.6911,2.6897,2.6906,2.6934,2.6968,2.6949,2.6712,2.6892,2.6889,2.6888,2.6886,2.6886,2.7764,2.7769,2.77,2.7671,2.7626,2.7585,2.758,2.7513,2.7486,2.7434,2.7374,2.735,2.7283,2.7201,2.7159,2.7138,2.7095,2.7109,2.7112,2.7117,2.713,2.6974,2.7128,2.7127,2.7127,2.7126,2.7125,0,2.7943,2.7894,2.7869,2.7808,2.7786,2.7715,2.766,2.7645,2.7626,2.7571,2.7539,2.7503,2.7468,2.7384,2.734,2.7339,2.7301,2.7331,2.7329,2.7319,2.7172,2.7168,2.7363,2.7363,2.7362,2.7362,2.7362,2.7362,2.8034,2.8038,2.7987,2.7968,2.7918,2.7895,2.787,2.7832,2.7787,2.7754,2.7724,2.767,2.7603,2.7554,2.7518,2.7494,2.7482,2.7524,2.7488,2.7352,2.7329,2.7308,2.7303,2.7523,2.7523,2.7636,2.7637,2.7638]}]]